Date,TemperatureHighF,TemperatureAvgF,TemperatureLowF,DewpointHighF,DewpointAvgF,DewpointLowF,HumidityHigh,HumidityAvg,HumidityLow,PressureMaxIn,PressureMinIn,WindSpeedMaxMPH,WindSpeedAvgMPH,GustSpeedMaxMPH,PrecipitationSumIn
2013-1-1,32.4,30.3,24.2,30.6,27.1,19.8,94,88,74,30.04,29.97,5,1,0,0.01
2013-1-2,13.2,12.1,10.4,10.1,9.2,7.6,89,88,87,30.23,30.21,0,0,0,0.00
2013-1-3,32.4,18.5,2.6,22.6,12.8,-0.4,100,79,61,30.23,30.13,9,2,0,0.00
2013-1-4,31.8,28.5,25.4,23.0,20.4,17.5,80,72,63,30.25,30.15,10,6,0,0.01
2013-1-5,36.4,27.0,12.2,27.7,21.0,9.4,91,78,66,30.36,30.11,7,2,0,0.08
2013-1-6,37.3,35.1,30.8,32.7,29.4,26.1,90,80,73,30.22,29.94,6,3,0,0.07
2013-1-7,32.7,29.1,21.1,28.1,25.4,18.6,91,86,83,30.43,30.22,5,2,0,0.01
2013-1-8,42.2,27.2,16.0,32.0,22.9,13.8,94,85,65,30.33,30.22,6,1,0,0.00
2013-1-9,47.0,35.5,21.2,40.1,30.8,19.2,94,84,66,30.46,30.17,8,2,0,0.05
2013-1-10,39.2,30.6,23.6,30.6,25.9,21.6,92,84,69,30.50,30.20,0,0,0,0.01
2013-1-11,57.6,45.0,36.0,53.8,41.3,29.8,94,87,70,30.20,29.84,10,2,0,0.43
2013-1-12,61.7,55.5,41.7,57.6,53.0,40.1,94,91,82,30.00,29.82,6,2,0,0.00
2013-1-13,66.0,60.9,42.3,58.8,56.2,40.1,94,85,75,29.92,29.71,11,4,0,0.18
2013-1-14,42.0,34.3,26.0,39.8,29.5,21.4,92,83,73,30.36,29.93,6,2,0,0.00
2013-1-15,32.9,28.1,21.2,25.1,22.6,18.6,91,80,67,30.37,30.06,4,1,0,0.00
2013-1-16,35.9,32.0,29.9,29.9,27.0,23.6,93,82,73,30.07,29.87,6,2,0,0.01
2013-1-17,36.7,33.5,28.1,30.2,27.7,19.3,87,79,69,30.21,29.99,7,1,0,0.00
2013-1-18,33.9,26.9,16.6,22.7,17.2,10.7,82,67,56,30.48,30.18,9,5,0,0.00
2013-1-19,53.4,43.1,33.0,29.6,25.6,22.6,67,51,32,30.18,29.75,12,7,0,0.00
2013-1-20,47.0,32.7,23.7,34.0,19.6,13.5,67,58,48,30.13,29.72,15,6,0,0.00
2013-1-21,23.9,19.6,10.3,19.6,12.1,2.3,92,73,54,30.11,29.93,11,4,0,0.00
2013-1-22,14.3,9.2,4.2,6.0,0.9,-1.8,83,69,59,30.30,30.11,8,4,0,0.00
2013-1-23,17.7,10.0,-0.7,12.6,3.9,-4.3,88,77,54,30.32,30.07,6,2,0,0.00
2013-1-24,24.7,16.1,10.9,15.0,9.0,4.4,89,74,46,30.54,30.07,6,1,0,0.00
2013-1-25,15.0,14.0,11.7,7.4,6.7,5.9,80,72,69,30.50,30.38,3,0,0,0.00
2013-1-26,23.4,20.4,15.4,18.2,15.7,11.4,87,82,79,30.44,30.39,3,0,0,0.03
2013-1-27,31.0,21.2,4.8,24.1,15.2,1.8,98,78,65,30.52,30.25,7,1,0,0.01
2013-1-28,50.1,41.3,30.3,48.4,39.2,24.1,94,92,77,30.26,29.96,6,3,0,0.43
2013-1-29,64.0,56.0,48.7,57.6,51.9,47.1,94,87,74,30.01,29.64,10,4,0,0.05
2013-1-30,66.6,57.6,37.3,57.7,52.1,33.6,92,82,69,29.63,29.12,20,9,0,0.70
2013-1-31,37.0,26.5,20.2,33.5,20.4,13.4,93,77,64,29.85,29.28,14,8,0,0.01